User: anonymous   Login
Location: Unspecified
(0.0000°N, 0.0000°E)
Time: 06:19:52
(UTC+00:00)
Language:

RASAT - Orbit

View from above orbital plane
View from above orbital plane
View from above satellite
View from above satellite

Ground track
Ground track

The orbit data is extracted from the following two-line orbital elements,

1 37791U 11044D   18175.79950511  .00000037  00000-0  16100-4 0  9998
2 37791  98.1266 268.2802 0022748  31.3612 328.8937 14.64670483366310
Epoch (UTC): 24 June 2018 19:11:17
Eccentricity: 0.0022748
inclination: 98.1266°
perigee height: 662 km
apogee height: 694 km
right ascension of ascending node: 268.2802°
argument of perigee: 31.3612°
revolutions per day: 14.64670483
mean anomaly at epoch: 328.8937°
orbit number at epoch: 36631

The dashed part of the orbit path shows where the satellite is in the earth's shadow,  

DLR